This demonstration page uses our WeatherBlox Daily Observations layout. Learn more.

Left ArrowRight Arrow

Hourly Observations for June 29, 2015

Temp ( °F °C ) Dew Point ( °F °C ) Humidity (%) Winds ( mph kmh ) Pressure ( in mb ) Visibility ( mi km ) Precip ( " mm )
12:54 am 00:54 Clear 69 20.6 59 15 70 70 NNW 7 11 29.9 1013 10 16.0934 N/A
1:54 am 01:54 Clear 66 18.9 59 15 78 78 NNW 5 7 29.9 1013 10 16.0934 N/A
2:54 am 02:54 Clear 65 18.3 59 15 81 81 NW 3 6 29.9 1013 9 14.48406 N/A
3:54 am 03:54 Clear 62 16.7 58 14.4 86 86 N N/A 29.91 1013 9 14.48406 N/A
4:54 am 04:54 Clear 62 16.7 58 14.4 86 86 N N/A 29.92 1013 8 12.87472 N/A
5:54 am 05:54 Clear 64 17.8 59 15 84 84 WSW 3 6 29.92 1013 9 14.48406 N/A
6:54 am 06:54 Sunny 65 18.3 59 15 81 81 N N/A 29.93 1014 7 11.26538 N/A
7:54 am 07:54 Sunny 69 20.6 59 15 70 70 WNW 7 11 29.94 1014 8 12.87472 N/A
8:54 am 08:54 Sunny 73 22.8 59 15 62 62 WNW 8 13 29.95 1014 9 14.48406 N/A
9:54 am 09:54 Sunny 79 26.1 61 16.1 54 54 WNW 9 15 29.94 1014 9 14.48406 N/A
10:54 am 10:54 Sunny 82 27.8 61 16.1 49 49 NW 10 17 29.94 1014 8 12.87472 N/A
11:54 am 11:54 Sunny 84 28.9 59 15 43 43 W 12 19 29.94 1014 8 12.87472 N/A
12:54 pm 12:54 Mostly Sunny 86 30 59 15 40 40 NNW 13 20 29.94 1014 8 12.87472 N/A
1:54 pm 13:54 Mostly Sunny 87 30.6 58 14.4 37 37 NW 7 11 29.93 1014 9 14.48406 N/A
2:54 pm 14:54 Sunny 88 31.1 58 14.4 36 36 N 10 17 29.93 1013 9 14.48406 N/A
3:54 pm 15:54 Hazy 88 31.1 58 14.4 36 36 WNW 10 17 29.92 1013 6 9.65604 N/A
4:54 pm 16:54 Hazy 88 31.1 59 15 38 38 NNW 7 11 29.91 1013 5 8.0467 N/A
5:54 pm 17:54 Hazy 88 31.1 58 14.4 36 36 NW 7 11 29.89 1012 5 8.0467 N/A
6:54 pm 18:54 Hazy 87 30.6 58 14.4 37 37 N 8 13 29.89 1012 5 8.0467 N/A
7:54 pm 19:54 Hazy 81 27.2 63 17.2 54 54 N 8 13 29.89 1012 6 9.65604 N/A
8:54 pm 20:54 Hazy 80 26.7 63 17.2 56 56 N 5 7 29.89 1012 5 8.0467 N/A
9:54 pm 21:54 Clear 74 23.3 64 17.8 71 71 N 3 6 29.91 1013 7 11.26538 N/A
10:54 pm 22:54 Mostly Clear 72 22.2 64 17.8 76 76 N N/A 29.92 1013 7 11.26538 N/A
11:54 pm 23:54 Hazy 73 22.8 64 17.8 74 74 W 3 6 29.91 1013 6 9.65604 N/A

Powered by AerisWeather